Regional Weather Roundup
Issued by NWS

Home | Current Version | Previous Version | Text Only | Print | Product List | Glossary On
Versions: 1 2 3 4 5 6 7 8 9 10 11 12 13 14 15 16 17 18 19 20 21 22 23 24 25 26 27 28 29 30 31 32 33 34 35 36 37 38 39 40 41 42 43 44 45 46 47 48 49 50
000
ASUS43 KMKX 061321
RWRWI

WISCONSIN REGIONAL WEATHER ROUNDUP
NATIONAL WEATHER SERVICE MILWAUKEE/SULLIVAN WI
800 AM CDT FRI MAY 06 2016

NOTE: "FAIR" INDICATES FEW OR NO CLOUDS BELOW 12,000 FEET WITH NO
SIGNIFICANT WEATHER AND/OR OBSTRUCTIONS TO VISIBILITY.

WIZ001-002-006>008-014>016-023>028-061400-
NORTHWEST WISCONSIN

CITY           SKY/WX    TMP DP  RH WIND       PRES   REMARKS
SUPERIOR ARPT  SUNNY     67  45  45 SW8       29.77F
ASHLAND        NOT AVBL
HAYWARD        NOT AVBL
SIREN          SUNNY     66  41  40 W8G18     29.84S
CUMBERLAND     SUNNY     63  41  45 W12       29.86S
RICE LAKE      SUNNY     62  44  53 CALM      29.88S
CHETEK         SUNNY     56  48  75 CALM      29.87S
LADYSMITH      SUNNY     56  44  64 CALM      29.88S
EAU CLAIRE     NOT AVBL
MENOMONIE      SUNNY     64  49  56 W6        29.87F
NEW RICHMOND   SUNNY     62  45  52 S3        29.88R
OSCEOLA        SUNNY     65  45  48 SW7       29.89S
$$

WIZ003>005-009-010-017-018-061400-
NORTH CENTRAL WISCONSIN

CITY           SKY/WX    TMP DP  RH WIND       PRES   REMARKS
MANITOWISH WTR SUNNY     55  43  64 CALM      29.84S
ARBOR VITAE    SUNNY     59  44  58 W3        29.84S
WOODRUFF       SUNNY     59  44  58 W3        29.84S
RHINELANDER    NOT AVBL
EAGLE RIVER    SUNNY     56  39  52 SW6       29.84S
LAND O LAKES   SUNNY     57  40  54 SW3       29.85S
PHILLIPS       SUNNY     59  43  55 SW6       29.85S
TOMAHAWK       SUNNY     57  43  59 CALM      29.86F
MEDFORD        MOSUNNY   57  43  58 W5        29.87S
MERRILL        SUNNY     54  43  66 CALM      29.88S
$$

WIZ029-030-035-036-043>047-061400-
CENTRAL WISCONSIN

CITY           SKY/WX    TMP DP  RH WIND       PRES   REMARKS
WAUSAU         NOT AVBL
MOSINEE        MOSUNNY   54  43  66 S7        29.89S
MARSHFIELD     NOT AVBL
STEVENS POINT  MOSUNNY   53  40  62 SW5       29.90S
WAUPACA        CLOUDY    57  41  55 S5        29.91R
WAUTOMA        CLOUDY    56  40  55 CALM      29.92S
WISC RAPIDS    NOT AVBL
CAMP DOUGLAS   MOSUNNY   64  46  52 W14       29.91S
$$

WIZ011>013-019>022-031-037>040-048>050-061400-
NORTHEAST WISCONSIN

CITY           SKY/WX    TMP DP  RH WIND       PRES   REMARKS
ANTIGO         MOSUNNY   54  42  62 CALM      29.88S
SHAWANO        PTSUNNY   58  39  49 SW6       29.88F
OCONTO         SUNNY     58  41  54 S9        29.87F
STURGEON BAY   SUNNY     61  43  51 S9        29.91S
GREEN BAY      NOT AVBL
MANITOWOC      SUNNY     57  44  62 MISG      29.92S
APPLETON       PTSUNNY   55  39  54 SW7       29.90R
CLINTONVILLE   CLOUDY    55  41  58 S3        29.89F
OSHKOSH        SUNNY     57  40  52 SW9G18    29.92R
$$

WIZ032>034-041-042-053>061-061400-
SOUTHWEST WISCONSIN

CITY           SKY/WX    TMP DP  RH WIND       PRES   REMARKS
LA CROSSE      NOT AVBL
SPARTA         MOSUNNY   55  46  69 CALM      29.92S
VIROQUA        MOSUNNY   55  41  59 SW7       29.94S
BOSCOBEL       MOSUNNY   51  46  83 CALM      29.97R
PRAIRIE DU CHI MOSUNNY   56  42  59 CALM      29.96S
PLATTEVILLE    CLOUDY    55  42  63 S7        29.98S
$$

WIZ056-057-062-063-064-067-068-061400-
SOUTH CENTRAL WISCONSIN

CITY           SKY/WX    TMP DP  RH WIND       PRES   REMARKS
REEDSBURG      CLOUDY    56  41  57 W3        29.94S
BARABOO/DELLS  CLOUDY    57  36  45 SW7       29.94R
LONE ROCK      SUNNY     54  42  64 CALM      29.96S
MINERAL POINT  MOSUNNY   55  41  58 S5        29.97S
MADISON        MOSUNNY   56  39  53 S6        29.95S
MIDDLETON      MOSUNNY   59  38  46 SW9       29.95F
WATERTOWN      MOSUNNY   56  42  59 SW8       29.95F
MONROE         SUNNY     54  39  58 SW10      29.98R
JANESVILLE     MOSUNNY   54  43  66 SW6       29.98R
$$

WIZ051-052-058>065-066-070>072-061400-
SOUTHEAST WISCONSIN

CITY           SKY/WX    TMP DP  RH WIND       PRES   REMARKS
MILWAUKEE      PTSUNNY   59  37  44 W9        29.96S
WAUKESHA       MOSUNNY   55  37  50 SW6       29.97S
MILWAUKEE/TIMM NOT AVBL
RACINE         PTSUNNY   57  40  52 W6        29.98R
BURLINGTON     SUNNY     58  40  51 SW8       29.98R
KENOSHA        CLOUDY    55  43  63 W8        29.97S
FOND DU LAC    SUNNY     61  39  44 SW13      29.92F
SHEBOYGAN      SUNNY     58  42  55 SW8       29.93S
WEST BEND      MOSUNNY   61  37  41 SW8       29.94F
JUNEAU         SUNNY     56  39  53 S9        29.95F
$$

LSZ147-162-061400-
LAKE SUPERIOR

STATION/POSITION TIME  TEMP    WIND        PRES    WAVE
                       AIR SEA DIR/SP/G            HT/PER
                 (UTC) (F)     (DEG/KT/KT) (MB)    (FT/S)
W MID LAKE BUOY  1250   44 37  200/  6/  8 1008.3R   1/ 3
DEVILS ISLAND    1300   63     230/ 22/ 24 1007.1R
SAXON HARBOR     1240   68     200/  5/ 12 1008.1R
$$

LMZ867-665-643>646-061400-
LAKE MICHIGAN

STATION/POSITION TIME  TEMP    WIND        PRES    WAVE
                       AIR SEA DIR/SP/G            HT/PER
                 (UTC) (F)     (DEG/KT/KT) (MB)    (FT/S)
CHAMBERS ISLAND  1200   55     180/  7/ 14 1011.9S
N MID LAKE BUOY  1250   42 39  190/ 14/ 16 1012.2F   1/ 3
NORTHPORT PIER   1200   47     150/  5/  6 1012.2R
ALGOMA LAKESHORE 1215          210/  9/ 10   N/A
KEWAUNEE LAKESHO 1300   47     170/  7/  7 1011.9F
SHEBOYGAN LAKESH 1300   55     210/  5/  6 1013.9S
PORT WASHINGTON  1240   54     190/  2/  5 1014.6S
S MID LAKE BUOY  1250   44 40  190/  8/  8 1015.2S   1
KENOSHA   LAKESH 1300   58     260/ 11/ 13 1014.9R
$$

TC  - TEMPERATURE IN CELSIUS
VSB - VISIBILITY IN STATUTE MILES
WCI - WIND CHILL INDEX
HX  - HEAT INDEX





USA.gov is the U.S. government's official web portal to all federal, state and local government web resources and services.